Regional Weather Roundup
Issued by NWS Cleveland, OH

Current Version | Previous Version | Text Only | Print | Product List | Glossary On
Versions: 1 2 3 4 5 6 7 8 9 10 11 12 13 14 15 16 17 18 19 20 21 22 23 24 25 26 27 28 29 30 31 32 33 34 35 36 37 38 39 40 41 42 43 44 45 46 47 48 49 50
000
ASUS41 KCLE 230512
RWRCLE
OHIO REGIONAL WEATHER ROUNDUP
NATIONAL WEATHER SERVICE WILMINGTON, OH
100 AM EDT WED MAY 23 2018

NOTE: "FAIR" INDICATES FEW OR NO CLOUDS BELOW 12,000 FEET WITH NO
SIGNIFICANT WEATHER AND/OR OBSTRUCTIONS TO VISIBILITY.

OHZ001>008-015>018-024>027-034-035-043-044-230600-
   NORTHWEST OHIO

CITY           SKY/WX    TMP DP  RH WIND       PRES   REMARKS
DEFIANCE       FAIR      58  54  86 N6        30.07S
FINDLAY        FAIR      62  56  80 N6        30.05R
TOLEDO EXPRESS FAIR      59  58  96 N5        30.06R
TOLEDO EXEC    FAIR      60  54  80 N5        30.07S
LIMA           CLOUDY    63  58  83 N12       30.06R
$$

OHZ009>014-019>023-028>033-038-089-230600-
   NORTHEAST OHIO

CITY           SKY/WX    TMP DP  RH WIND       PRES   REMARKS
CLE-HOPKINS    DRIZZLE   59  56  89 N6        30.06S
CLE-LAKEFRONT  CLOUDY    59  54  83 NE3       30.03F
CUY CO. ARPT   NOT AVBL
LORAIN-ELYRIA  CLOUDY    59  51  75 N9        30.05S
ASHTABULA      CLOUDY    56  54  93 NW3       30.02F
AKRON-CANTON   CLOUDY    64  60  87 N3        30.03R FOG
WOOSTER        LGT RAIN  62  59  90 N12       30.04S FOG
MANSFIELD      CLOUDY    62  58  86 N10       30.05R
YOUNGSTOWN     CLOUDY    62  60  93 NW5       30.01S FOG
$$

OHZ042-051>053-060>062-070>072-077>081-230600-
  SOUTHWEST OHIO

CITY           SKY/WX    TMP DP  RH WIND       PRES   REMARKS
CINC-COVINGTON FAIR      70  60  70 N12       30.04R
CINC-LUNKEN    FAIR      65  65 100 CALM      30.04R
HAMILTON       FAIR      69  61  75 N5        30.05R
DAYTON         FAIR      62  61  96 N8        30.07R
WRIGHT-PAT AFB FAIR      66  60  81 N3        30.05R
DAYTON GENERAL FAIR      67  59  75 N8        30.04R
WILMINGTON     FAIR      67  62  84 N8        30.05R
$$

OHZ036-037-039>041-045>050-054>059-063>069-073>076-082>088-230600-
  CENTRAL AND SOUTHEAST OHIO

CITY           SKY/WX    TMP DP  RH WIND       PRES   REMARKS
COLUMBUS       FAIR      66  60  81 N7        30.02R
OSU AIRPORT    FAIR      64  60  87 N6        30.03R
BOLTON FIELD   FAIR      65  61  85 N6        30.04R
RICKENBACK AFB FAIR      66  61  83 MISG      30.02R
NEWARK         MOCLDY    66  62  87 CALM      30.03R
MARION         MOCLDY    63  58  83 N10       30.06R
LANCASTER      FAIR      66  64  93 N3        30.03R
ZANESVILLE     CLOUDY    65  63  93 N6        30.02R
NEW PHILLY     MOCLDY    65  63  93 NW3       30.02R
$$




USA.gov is the U.S. government's official web portal to all federal, state and local government web resources and services.